User: anonymous   Login
Location: Barruelo
(41.2448°N, 3.8231°W)
Time: 12:16:18
(UTC+00:00)
Language:

Cosmos 2333 Rocket - Orbit

View from above orbital plane
View from above orbital plane
View from above satellite
View from above satellite

Ground track
Ground track

The orbit is defined by the following mean orbital elements,

1 24298U          26039.98756605 +.00000000 +00000-0 +68821-4 0 00003
2 24298  70.7565 235.9911 0017512 188.2753 171.8080 14.12407337    04
Epoch (UTC): 08 February 2026 23:42:05
Eccentricity: 0.0017512
inclination: 70.7565°
perigee height: 838 km
apogee height: 864 km
right ascension of ascending node: 235.9911°
argument of perigee: 188.2753°
revolutions per day: 14.12407337
mean anomaly at epoch: 171.8080°

The dashed part of the orbit path shows where the satellite is in the earth's shadow,  

DLR